Regional Weather Roundup
Issued by NWS

Home | Current Version | Previous Version | Text Only | Print | Product List | Glossary Off
Versions: 1 2 3 4 5 6 7 8 9 10 11 12 13 14 15 16 17 18 19 20 21 22 23 24 25 26 27 28 29 30 31 32 33 34 35 36 37 38 39 40 41 42 43 44 45 46 47 48 49 50

907
ASUS44 KMEG 260210
RWRTN
TENNESSEE HOURLY STATE WEATHER ROUNDUP
NATIONAL WEATHER SERVICE MEMPHIS TN
900 PM CDT WED MAY 25 2016

TNZ002-004-019-021-049-052-054-088>092-260300-
WEST TENNESSEE

CITY           SKY/WX    TMP DP  RH WIND       PRES   REMARKS
MEMPHIS INTL   CLOUDY    73  68  84 SE9       30.07S
NWS MEMPHIS      N/A     69 N/A N/A MISG        N/A
JACKSON        PTCLDY    66  63  90 S6        30.09S
DYERSBURG      PTCLDY    66  64  94 S6        30.07F
UNION CITY     MOCLDY    66  66 100 S9        30.06S
PARIS          PTCLDY    64  63  94 SW9       30.08R
LEXINGTON      CLEAR     66  64  94 W7        30.08R
$$

TNZ008-025-027-028-033-062-065-066-260300-
NORTH MIDDLE TENNESSEE

CITY           SKY/WX    TMP DP  RH WIND       PRES   REMARKS
NASHVILLE      MOCLDY    67  64  90 E10       30.08F
CLARKSVILLE    CLOUDY    66  64  93 CALM      30.08S
SMYRNA         CLOUDY    68  68 100 SE7       30.10F
COOKEVILLE     MOCLDY    75  64  69 W6        30.15S
CROSSVILLE     MOCLDY    72  59  63 VRB3      30.20F
$$

TNZ061-075-076-078-094-096-097-260300-
SOUTH MIDDLE TENNESSEE

CITY           SKY/WX    TMP DP  RH WIND       PRES   REMARKS
FAYETTEVILLE   CLOUDY    73  61  64 CALM      30.16F
TULLAHOMA      CLOUDY    72  59  64 SW7       30.18F
WINCHESTER     MOCLDY    77  61  57 W10       30.18F
MCMINNVILLE    MOCLDY    70  66  88 CALM      30.18S
COLUMBIA       CLEAR     72  66  83 SW5       30.07F
SHELBYVILLE    CLOUDY    77  61  57 S7        30.13F
$$

TNZ017-018-042-046-047-260300-
NORTHEAST TENNESSEE

CITY           SKY/WX    TMP DP  RH WIND       PRES   REMARKS
TRI CITIES     LGT RAIN  71  63  75 S3        30.20R
$$

TNZ012-013-036-069-073-074-260300-
CENTRAL EAST TENNESSEE

CITY           SKY/WX    TMP DP  RH WIND       PRES   REMARKS
KNOXVILLE      MOCLDY    75  60  59 CALM      30.16R
OAK RIDGE      PTCLDY    74  62  66 CALM      30.17S
GATLINBURG     CLEAR     70  61  73 CALM      30.17S
$$

TNZ083-085-099-260300-
SOUTHEAST TENNESSEE

CITY           SKY/WX    TMP DP  RH WIND       PRES   REMARKS
CHATTANOOGA    MOCLDY    79  58  48 SE3       30.17R
$$

SKY/WX REPORTED AS FAIR MEANS FEW OR NO CLOUDS BELOW
12 THOUSAND FEET.





USA.gov is the U.S. government's official web portal to all federal, state and local government web resources and services.